Location: Quaker Farms
(41.4276°N, 73.1557°W)
Time: 18:06:15
(UTC+00:00)

Vanguard 1 Rocket - All Passes

Search period start: 18 June 2021 00:00
Search period end: 28 June 2021 00:00
Orbit: 651 x 4225 km, 34.3° (Epoch: 18 June)

Date Brightness Start Highest point End Pass type
(mag) Time Alt. Az. Time Alt. Az. Time Alt. Az.
18 Jun - 02:13:54 10° SW 02:21:40 42° SSE 02:36:01 10° E visible
18 Jun - 04:37:04 10° WSW 04:48:24 67° S 05:10:08 10° E visible
18 Jun - 07:02:25 10° W 07:18:09 59° SSW 07:43:01 10° SE visible
18 Jun - 09:30:39 10° W 09:48:33 35° SW 10:10:08 10° SSE daylight
19 Jun - 01:04:52 10° SSW 01:10:51 26° SE 01:20:24 10° E visible
19 Jun - 03:26:34 10° WSW 03:35:51 60° SSE 03:54:10 10° E visible
19 Jun - 05:50:58 10° W 06:04:17 65° S 06:28:01 10° ESE visible
19 Jun - 08:17:30 10° W 08:34:33 45° SSW 08:58:06 10° SSE visible
19 Jun - 10:50:08 10° W 11:04:04 19° SW 11:19:08 10° S daylight
19 Jun - 23:58:00 10° SSE 00:00:35 12° SE 00:03:38 10° ESE daylight
20 Jun - 02:16:33 10° SW 02:24:07 47° SSE 02:38:30 10° E visible
20 Jun - 04:40:01 10° WSW 04:51:02 66° S 05:12:19 10° ESE visible
20 Jun - 07:05:23 10° W 07:20:31 54° SSW 07:44:34 10° SE visible
20 Jun - 09:34:13 10° W 09:50:32 29° SW 10:10:19 10° S daylight
21 Jun - 01:07:08 10° SSW 01:13:10 31° SE 01:23:15 10° E visible
21 Jun - 03:29:27 10° WSW 03:38:30 62° S 03:56:27 10° E visible
21 Jun - 05:53:57 10° W 06:06:49 60° SSW 06:29:52 10° ESE visible
21 Jun - 08:20:43 10° W 08:36:43 39° SSW 08:58:55 10° SSE visible
21 Jun - 10:56:36 10° WSW 11:05:59 14° SW 11:16:01 10° SSW daylight
21 Jun - 23:58:58 10° S 00:02:47 16° SE 00:07:52 10° E daylight
22 Jun - 02:19:18 10° SW 02:26:42 52° SSE 02:40:56 10° E visible
22 Jun - 04:43:00 10° W 04:53:42 64° S 05:14:24 10° ESE visible
22 Jun - 07:08:27 10° W 07:22:54 47° SSW 07:45:51 10° SE visible
22 Jun - 09:38:21 10° W 09:52:35 23° SW 10:09:43 10° S daylight
23 Jun - 01:09:39 10° SW 01:15:37 36° SSE 01:25:58 10° E visible
23 Jun - 03:32:25 10° WSW 03:41:12 63° S 03:58:43 10° E visible
23 Jun - 05:56:58 10° W 06:09:23 55° SSW 06:31:31 10° SE visible
23 Jun - 08:24:10 10° W 08:38:57 32° SW 08:59:15 10° SSE visible
24 Jun - 00:00:47 10° S 00:05:07 21° SE 00:11:17 10° E daylight
24 Jun - 02:22:10 10° WSW 02:29:23 55° SSE 02:43:22 10° E visible
24 Jun - 04:46:00 10° W 04:56:22 60° S 05:16:22 10° ESE visible
24 Jun - 07:11:39 10° W 07:25:19 41° SSW 07:46:47 10° SSE visible
24 Jun - 09:43:33 10° WSW 09:54:44 17° SW 10:07:50 10° SSW daylight
25 Jun - 01:12:19 10° SW 01:18:11 41° SSE 01:28:37 10° E visible
25 Jun - 03:35:25 10° WSW 03:43:57 61° S 04:00:56 10° ESE visible
25 Jun - 06:00:04 10° W 06:11:57 48° SSW 06:32:56 10° SE visible
25 Jun - 08:28:03 10° W 08:41:14 25° SW 08:58:58 10° S visible
26 Jun - 00:03:01 10° SSW 00:07:34 25° SE 00:14:23 10° E daylight
26 Jun - 02:25:07 10° WSW 02:32:08 57° S 02:45:46 10° E visible
26 Jun - 04:49:04 10° W 04:59:05 55° SSW 05:18:11 10° ESE visible
26 Jun - 07:15:03 10° W 07:27:47 34° SSW 07:47:18 10° SSE visible
26 Jun - 09:52:03 10° WSW 09:57:02 11° SW 10:02:22 10° SSW daylight
26 Jun - 22:55:17 10° SSE 22:57:18 12° SE 22:59:35 10° ESE daylight
27 Jun - 01:15:08 10° SW 01:20:54 46° SSE 01:31:13 10° E visible
27 Jun - 03:38:28 10° W 03:46:44 58° S 04:03:04 10° ESE visible
27 Jun - 06:03:16 10° W 06:14:34 41° SSW 06:34:03 10° SE visible
27 Jun - 08:32:40 10° WSW 08:43:37 19° SW 08:57:42 10° S visible
